Location: Wanzleben
(52.0609°N, 11.4408°E)
Time: 02:17:30
(UTC+00:00)

COSMOS 2406 - Pass Details

Date: 24 January 2021
Orbit: 841 x 865 km, 71.0° (Epoch: 05 March)

Event Time Altitude Azimuth Distance (km) Brightness Sun altitude
Rises 20:06:51 0° 316° (NW) 3,458 7.1 -39.1°
Reaches altitude 10° 20:10:56 10° 288° (WNW) 2,512 6.3 -39.7°
Maximum altitude 20:13:07 12° 265° (W) 2,345 6.0 -40.0°
Drops below altitude 10° 20:15:19 10° 243° (WSW) 2,501 6.0 -40.3°
Enters shadow 20:16:47 - 230° (SW) 2,762 6.1 -40.5°
